Location: Peterborough
(44.3091°N, 78.3197°W)
Time: 16:31:11
(UTC-04:00)

Transit 4A - Pass Details

Date: 24 March 2023
Orbit: 864 x 980 km, 66.8° (Epoch: 04 June)

Event Time Altitude Azimuth Distance (km) Brightness Sun altitude
Rises 17:38:50 0° 319° (NW) 3,575 11.3 18.9°
Reaches altitude 10° 17:41:36 10° 310° (NW) 2,646 10.9 18.4°
Maximum altitude 17:46:52 30° 251° (WSW) 1,620 11.3 17.5°
Drops below altitude 10° 17:52:15 10° 192° (SSW) 2,693 10.8 16.6°
Sets 17:55:06 0° 182° (S) 3,648 11.2 16.1°
